This demonstration page uses our WeatherBlox Daily Observations layout. Learn more.

Left ArrowRight Arrow

53.62937, 11.41316

Hourly Observations for June 25, 2015

Temp ( °F °C ) Dew Point ( °F °C ) Humidity (%) Winds ( mph kmh ) Pressure ( in mb ) Visibility ( mi km ) Precip ( " mm )
6:20 am 06:20 Cloudy 55 13 50 10 82 82 WSW 7 11 30.12 1020 6 9 N/A
6:50 am 06:50 Cloudy 55 13 52 11 88 88 WSW 8 13 30.15 1021 30 48 N/A
7:20 am 07:20 Cloudy 55 13 52 11 88 88 WSW 7 11 30.15 1021 30 48 N/A
7:50 am 07:50 Cloudy 57 14 52 11 82 82 WSW 7 11 30.15 1021 30 48 N/A
8:20 am 08:20 Cloudy 57 14 52 11 82 82 WSW 8 13 30.15 1021 30 48 N/A
8:50 am 08:50 Cloudy 59 15 52 11 77 77 WSW 9 15 30.15 1021 30 48 N/A
9:20 am 09:20 Cloudy 59 15 52 11 77 77 WSW 8 13 30.15 1021 30 48 N/A
9:50 am 09:50 Cloudy 61 16 54 12 77 77 WSW 8 13 30.15 1021 30 48 N/A
10:20 am 10:20 Mostly Sunny 63 17 52 11 68 68 W 9 15 30.15 1021 7 11 N/A
10:50 am 10:50 Partly Cloudy 63 17 52 11 68 68 SW 9 15 30.15 1021 30 48 N/A
11:20 am 11:20 Mostly Sunny 64 18 52 11 64 64 WSW 8 13 30.15 1021 7 11 N/A
11:50 am 11:50 Mostly Sunny 68 20 54 12 60 60 WSW 9 15 30.15 1021 7 11 N/A
12:20 pm 12:20 Mostly Sunny 66 19 48 9 52 52 W 9 15 30.15 1021 7 11 N/A
12:50 pm 12:50 Mostly Sunny 68 20 50 10 53 53 WSW 12 19 30.15 1021 7 11 N/A
1:20 pm 13:20 Mostly Sunny 66 19 50 10 56 56 W 10 17 30.15 1021 7 11 N/A
1:50 pm 13:50 Mostly Sunny 68 20 52 11 56 56 W 10 17 30.15 1021 30 48 N/A
2:20 pm 14:20 Mostly Sunny 68 20 54 12 60 60 WSW 10 17 30.15 1021 30 48 N/A
2:50 pm 14:50 Mostly Sunny 68 20 52 11 56 56 W 12 19 30.15 1021 30 48 N/A
3:20 pm 15:20 Mostly Sunny 68 20 52 11 56 56 WNW 9 15 30.15 1021 30 48 N/A
3:50 pm 15:50 Mostly Sunny 68 20 54 12 60 60 W 6 9 30.15 1021 30 48 N/A
4:20 pm 16:20 Mostly Sunny 70 21 54 12 57 57 SW 5 7 30.15 1021 7 11 N/A
4:50 pm 16:50 Mostly Sunny 68 20 54 12 60 60 SW 10 17 30.15 1021 30 48 N/A
4:51 pm 16:51 Cloudy with Showers 68 20 54 12 60 60 WSW 10 17 30.15 1021 30 48 N/A
5:20 pm 17:20 Mostly Cloudy 61 16 55 13 83 83 SSW 10 17 30.15 1021 30 48 N/A
5:50 pm 17:50 Mostly Sunny 64 18 57 14 78 78 S 3 6 30.15 1021 7 11 N/A
6:20 pm 18:20 Mostly Sunny 66 19 55 13 68 68 S 5 7 30.15 1021 7 11 N/A
6:50 pm 18:50 Mostly Sunny 66 19 57 14 73 73 SW 6 9 30.15 1021 7 11 N/A

Powered by AerisWeather